| time (UTC) | temp F | wind direction | speed MPH | gust MPH | rain 1hr in | rain 24hr in | rain mn in | humidity % | barometer mb |
| 20260905212022 | 63 | 96 | 1.0 | 3.0 | 0.00 | 0.09 | 0.06 | 84 | 1017.5 |
| 20260905211929 | 63 | 154 | 1.0 | 4.0 | 0.00 | 0.09 | 0.06 | 86 | 1017.5 |
| 20260905211530 | 62 | 93 | 1.0 | 5.0 | 0.00 | 0.09 | 0.06 | 87 | 1017.5 |
| 20260905211417 | 62 | 110 | 1.0 | 5.0 | 0.00 | 0.09 | 0.06 | 86 | 1017.4 |
| 20260905211019 | 63 | 292 | 2.0 | 5.0 | 0.00 | 0.09 | 0.06 | 84 | 1017.5 |
| 20260905210926 | 63 | 290 | 1.0 | 4.0 | 0.00 | 0.09 | 0.06 | 86 | 1017.5 |
| 20260905210530 | 63 | 240 | 1.0 | 4.0 | 0.00 | 0.09 | 0.06 | 85 | 1017.6 |
| 20260905210416 | 63 | 325 | 1.0 | 4.0 | 0.00 | 0.09 | 0.06 | 86 | 1017.6 |
| 20260905210027 | 63 | 259 | 2.0 | 4.0 | 0.00 | 0.09 | 0.06 | 86 | 1017.6 |
| 20260905205930 | 63 | 297 | 1.0 | 3.0 | 0.00 | 0.09 | 0.06 | 87 | 1017.6 |
| 20260905205517 | 62 | 282 | 1.0 | 5.0 | 0.00 | 0.09 | 0.06 | 89 | 1017.7 |
| 20260905205420 | 62 | 57 | 1.0 | 5.0 | 0.00 | 0.09 | 0.06 | 88 | 1017.7 |
| 20260905205026 | 62 | 104 | 2.0 | 5.0 | 0.00 | 0.09 | 0.06 | 85 | 1017.6 |
| 20260905204930 | 62 | 97 | 2.0 | 5.0 | 0.00 | 0.09 | 0.06 | 85 | 1017.6 |
| 20260905204515 | 63 | 311 | 1.0 | 3.0 | 0.00 | 0.09 | 0.06 | 85 | 1017.7 |
| 20260905204416 | 63 | 5 | 1.0 | 3.0 | 0.00 | 0.09 | 0.06 | 87 | 1017.7 |
| 20260905204021 | 62 | 212 | 1.0 | 5.0 | 0.00 | 0.09 | 0.06 | 87 | 1017.7 |
| 20260905203923 | 62 | 321 | 1.0 | 5.0 | 0.00 | 0.09 | 0.06 | 87 | 1017.7 |
| 20260905203530 | 62 | 223 | 2.0 | 5.0 | 0.00 | 0.09 | 0.06 | 86 | 1017.6 |
| 20260905203430 | 62 | 129 | 2.0 | 5.0 | 0.00 | 0.09 | 0.06 | 86 | 1017.6 |
| 20260905203016 | 62 | 360 | 1.0 | 3.0 | 0.00 | 0.09 | 0.06 | 87 | 1017.6 |
| 20260905202920 | 62 | 120 | 1.0 | 3.0 | 0.00 | 0.09 | 0.06 | 86 | 1017.6 |
| 20260905202525 | 62 | 335 | 1.0 | 5.0 | 0.00 | 0.09 | 0.06 | 86 | 1017.7 |
| 20260905202426 | 62 | 131 | 1.0 | 5.0 | 0.00 | 0.09 | 0.06 | 86 | 1017.7 |
| 20260905202031 | 62 | 40 | 2.0 | 5.0 | 0.00 | 0.09 | 0.06 | 86 | 1017.6 |
| 20260905201914 | 63 | 355 | 2.0 | 5.0 | 0.00 | 0.09 | 0.06 | 85 | 1017.6 |
| 20260905201520 | 62 | 160 | 1.0 | 6.0 | 0.00 | 0.09 | 0.06 | 88 | 1017.5 |
| 20260905201423 | 62 | 5 | 1.0 | 6.0 | 0.00 | 0.09 | 0.06 | 89 | 1017.5 |
| 20260905201028 | 62 | 285 | 2.0 | 7.0 | 0.00 | 0.09 | 0.06 | 87 | 1017.5 |
| 20260905200931 | 62 | 179 | 3.0 | 7.0 | 0.00 | 0.09 | 0.06 | 87 | 1017.6 |
| 20260905200519 | 62 | 202 | 2.0 | 7.0 | 0.00 | 0.09 | 0.06 | 87 | 1017.5 |
| 20260905200420 | 62 | 77 | 2.0 | 7.0 | 0.00 | 0.09 | 0.06 | 86 | 1017.5 |
| 20260905200013 | 63 | 262 | 2.0 | 6.0 | 0.00 | 0.09 | 0.06 | 85 | 1017.5 |
| 20260905195915 | 63 | 293 | 2.0 | 5.0 | 0.00 | 0.09 | 0.06 | 85 | 1017.6 |
| 20260905195521 | 63 | 162 | 2.0 | 5.0 | 0.00 | 0.09 | 0.06 | 87 | 1017.5 |
| 20260905195425 | 63 | 255 | 2.0 | 5.0 | 0.00 | 0.09 | 0.06 | 86 | 1017.5 |
| 20260905195030 | 63 | 271 | 2.0 | 4.0 | 0.00 | 0.09 | 0.06 | 86 | 1017.5 |
| 20260905194914 | 63 | 281 | 2.0 | 4.0 | 0.00 | 0.09 | 0.06 | 88 | 1017.5 |
| 20260905194519 | 62 | 335 | 1.0 | 6.0 | 0.00 | 0.09 | 0.06 | 87 | 1017.4 |
| 20260905194422 | 62 | 285 | 2.0 | 6.0 | 0.00 | 0.09 | 0.06 | 88 | 1017.4 |
| 20260905194023 | 62 | 345 | 2.0 | 6.0 | 0.00 | 0.09 | 0.06 | 86 | 1017.4 |
| 20260905193931 | 62 | 290 | 2.0 | 6.0 | 0.00 | 0.09 | 0.06 | 87 | 1017.4 |
| 20260905193515 | 62 | 297 | 2.0 | 4.0 | 0.00 | 0.09 | 0.06 | 88 | 1017.7 |
| 20260905193421 | 62 | 273 | 1.0 | 4.0 | 0.00 | 0.09 | 0.06 | 87 | 1017.7 |
| 20260905193023 | 62 | 63 | 2.0 | 5.0 | 0.00 | 0.09 | 0.06 | 87 | 1017.7 |
| 20260905192929 | 62 | 108 | 2.0 | 5.0 | 0.00 | 0.09 | 0.06 | 88 | 1017.7 |
| 20260905192530 | 62 | 72 | 1.0 | 5.0 | 0.00 | 0.09 | 0.06 | 88 | 1017.7 |
| 20260905192416 | 62 | 188 | 2.0 | 5.0 | 0.00 | 0.09 | 0.06 | 88 | 1017.7 |
| 20260905192018 | 62 | 142 | 2.0 | 5.0 | 0.00 | 0.09 | 0.06 | 87 | 1017.7 |
| 20260905191921 | 62 | 299 | 2.0 | 5.0 | 0.00 | 0.09 | 0.06 | 87 | 1017.7 |
| 20260905191527 | 62 | 165 | 0.0 | 5.0 | 0.00 | 0.09 | 0.06 | 89 | 1017.9 |
| 20260905191431 | 62 | 68 | 1.0 | 5.0 | 0.00 | 0.09 | 0.06 | 89 | 1017.9 |
| 20260905191017 | 62 | 302 | 1.0 | 5.0 | 0.00 | 0.09 | 0.06 | 90 | 1017.7 |
| 20260905190918 | 62 | 140 | 1.0 | 5.0 | 0.00 | 0.09 | 0.06 | 89 | 1017.7 |
| 20260905190525 | 62 | 296 | 1.0 | 3.0 | 0.00 | 0.09 | 0.06 | 90 | 1017.6 |
| 20260905190426 | 62 | 254 | 1.0 | 3.0 | 0.00 | 0.09 | 0.06 | 89 | 1017.7 |
| 20260905190030 | 61 | 288 | 1.0 | 3.0 | 0.00 | 0.09 | 0.06 | 90 | 1017.7 |
| 20260905185913 | 61 | 268 | 1.0 | 3.0 | 0.00 | 0.09 | 0.06 | 91 | 1017.7 |
| 20260905185518 | 61 | 122 | 1.0 | 3.0 | 0.00 | 0.09 | 0.06 | 91 | 1017.7 |
| 20260905185418 | 61 | 249 | 0.0 | 3.0 | 0.00 | 0.09 | 0.06 | 92 | 1017.7 |
| 20260905185023 | 61 | 253 | 1.0 | 3.0 | 0.00 | 0.09 | 0.06 | 93 | 1017.7 |
| 20260905184927 | 61 | 297 | 1.0 | 3.0 | 0.00 | 0.09 | 0.06 | 93 | 1017.7 |
| 20260905184533 | 60 | 186 | 0.0 | 5.0 | 0.00 | 0.09 | 0.06 | 93 | 1017.7 |
| 20260905184414 | 60 | 194 | 1.0 | 5.0 | 0.00 | 0.09 | 0.06 | 93 | 1017.7 |
| 20260905184019 | 60 | 318 | 1.0 | 5.0 | 0.00 | 0.09 | 0.06 | 92 | 1017.6 |
| 20260905183922 | 60 | 316 | 1.0 | 5.0 | 0.00 | 0.09 | 0.06 | 93 | 1017.6 |
| 20260905183528 | 60 | 249 | 2.0 | 5.0 | 0.00 | 0.09 | 0.06 | 92 | 1017.5 |
| 20260905183017 | 60 | 2 | 1.0 | 4.0 | 0.00 | 0.09 | 0.06 | 94 | 1017.6 |
| 20260905182920 | 60 | 2 | 1.0 | 4.0 | 0.00 | 0.09 | 0.06 | 95 | 1017.6 |
| 20260905182526 | 60 | 139 | 1.0 | 2.0 | 0.00 | 0.09 | 0.06 | 95 | 1017.6 |
| 20260905182428 | 59 | 79 | 0.0 | 2.0 | 0.00 | 0.09 | 0.06 | 94 | 1017.6 |
| 20260905182015 | 59 | 72 | 0.0 | 2.0 | 0.00 | 0.09 | 0.06 | 94 | 1017.5 |
| 20260905181917 | 59 | 70 | 1.0 | 2.0 | 0.00 | 0.09 | 0.06 | 94 | 1017.6 |
| 20260905181521 | 59 | 227 | 0.0 | 2.0 | 0.00 | 0.09 | 0.06 | 95 | 1017.5 |
| 20260905181424 | 59 | 58 | 0.0 | 2.0 | 0.00 | 0.09 | 0.06 | 95 | 1017.5 |
| 20260905181025 | 59 | 297 | 1.0 | 2.0 | 0.00 | 0.09 | 0.06 | 95 | 1017.5 |
| 20260905180912 | 59 | 316 | 0.0 | 2.0 | 0.00 | 0.09 | 0.06 | 95 | 1017.5 |
| 20260905180515 | 59 | 294 | 1.0 | 3.0 | 0.00 | 0.09 | 0.06 | 95 | 1017.5 |
| 20260905180419 | 59 | 271 | 0.0 | 3.0 | 0.00 | 0.09 | 0.06 | 96 | 1017.6 |
| 20260905180028 | 59 | 254 | 1.0 | 4.0 | 0.00 | 0.09 | 0.06 | 95 | 1017.5 |
| 20260905175916 | 59 | 89 | 1.0 | 4.0 | 0.00 | 0.09 | 0.06 | 95 | 1017.5 |
| 20260905175517 | 59 | 158 | 1.0 | 4.0 | 0.00 | 0.09 | 0.06 | 95 | 1017.5 |
| 20260905175419 | 59 | 87 | 1.0 | 4.0 | 0.00 | 0.09 | 0.06 | 95 | 1017.5 |
| 20260905175026 | 58 | 56 | 0.0 | 3.0 | 0.00 | 0.09 | 0.06 | 95 | 1017.6 |
| 20260905174930 | 58 | 56 | 0.0 | 3.0 | 0.00 | 0.09 | 0.06 | 95 | 1017.7 |
| 20260905174517 | 58 | 128 | 0.0 | 2.0 | 0.00 | 0.09 | 0.06 | 96 | 1017.7 |
| 20260905174419 | 58 | 80 | 0.0 | 2.0 | 0.00 | 0.09 | 0.06 | 96 | 1017.6 |
| 20260905174025 | 58 | 80 | 1.0 | 3.0 | 0.00 | 0.09 | 0.06 | 95 | 1017.6 |
| 20260905173928 | 58 | 77 | 1.0 | 3.0 | 0.00 | 0.09 | 0.06 | 95 | 1017.7 |
| 20260905173515 | 58 | 114 | 0.0 | 3.0 | 0.00 | 0.09 | 0.06 | 95 | 1017.6 |
| 20260905173417 | 58 | 113 | 0.0 | 3.0 | 0.00 | 0.09 | 0.06 | 95 | 1017.6 |
| 20260905173023 | 58 | 98 | 1.0 | 2.0 | 0.00 | 0.09 | 0.06 | 95 | 1017.5 |
| 20260905172926 | 58 | 82 | 0.0 | 2.0 | 0.00 | 0.09 | 0.06 | 95 | 1017.5 |
| 20260905172532 | 58 | 84 | 1.0 | 2.0 | 0.00 | 0.09 | 0.06 | 95 | 1017.5 |
| 20260905172415 | 59 | 81 | 0.0 | 1.0 | 0.00 | 0.09 | 0.06 | 95 | 1017.5 |
| 20260905172021 | 59 | 233 | 0.0 | 2.0 | 0.00 | 0.09 | 0.06 | 96 | 1017.5 |
| 20260905171922 | 59 | 233 | 0.0 | 2.0 | 0.00 | 0.09 | 0.06 | 96 | 1017.4 |
| 20260905171527 | 59 | 83 | 1.0 | 2.0 | 0.00 | 0.09 | 0.06 | 96 | 1017.4 |
| 20260905171428 | 59 | 254 | 0.0 | 1.0 | 0.00 | 0.09 | 0.06 | 96 | 1017.3 |
| 20260905171033 | 59 | 254 | 0.0 | 2.0 | 0.00 | 0.09 | 0.06 | 96 | 1017.4 |
| 20260905170916 | 59 | 254 | 0.0 | 2.0 | 0.00 | 0.09 | 0.06 | 96 | 1017.4 |
| 20260905170524 | 59 | 360 | 1.0 | 2.0 | 0.00 | 0.09 | 0.06 | 95 | 1017.2 |
| 20260905170426 | 59 | 59 | 1.0 | 2.0 | 0.00 | 0.09 | 0.06 | 95 | 1017.3 |
| 20260905170022 | 59 | 293 | 0.0 | 1.0 | 0.01 | 0.09 | 0.06 | 96 | 1017.2 |
| 20260905165926 | 59 | 293 | 0.0 | 1.0 | 0.01 | 0.09 | 0.06 | 96 | 1017.2 |
| 20260905165531 | 59 | 292 | 0.0 | 1.0 | 0.01 | 0.09 | 0.06 | 96 | 1017.3 |
| 20260905165412 | 59 | 272 | 0.0 | 1.0 | 0.01 | 0.09 | 0.06 | 96 | 1017.3 |
| 20260905165018 | 59 | 272 | 0.0 | 1.0 | 0.01 | 0.09 | 0.06 | 96 | 1017.3 |
| 20260905164921 | 59 | 273 | 0.0 | 1.0 | 0.01 | 0.09 | 0.06 | 96 | 1017.3 |
| 20260905164527 | 58 | 274 | 0.0 | 1.0 | 0.02 | 0.09 | 0.06 | 97 | 1017.3 |
| 20260905164430 | 58 | 273 | 0.0 | 1.0 | 0.02 | 0.09 | 0.06 | 97 | 1017.3 |
| 20260905164017 | 58 | 274 | 0.0 | 0.0 | 0.02 | 0.09 | 0.06 | 97 | 1017.3 |
| 20260905163919 | 58 | 274 | 0.0 | 0.0 | 0.02 | 0.09 | 0.06 | 97 | 1017.2 |
| 20260905163524 | 58 | 274 | 0.0 | 0.0 | 0.02 | 0.09 | 0.06 | 96 | 1017.2 |
| 20260905163424 | 58 | 273 | 0.0 | 1.0 | 0.02 | 0.09 | 0.06 | 96 | 1017.2 |
| 20260905163024 | 58 | 272 | 0.0 | 1.0 | 0.02 | 0.09 | 0.06 | 97 | 1017.2 |
| 20260905162930 | 57 | 272 | 0.0 | 1.0 | 0.02 | 0.09 | 0.06 | 97 | 1017.2 |
| 20260905162513 | 57 | 272 | 0.0 | 1.0 | 0.02 | 0.09 | 0.06 | 97 | 1017.3 |
| 20260905162419 | 57 | 272 | 0.0 | 1.0 | 0.02 | 0.09 | 0.06 | 97 | 1017.2 |
| 20260905162021 | 57 | 357 | 0.0 | 1.0 | 0.02 | 0.09 | 0.06 | 96 | 1017.2 |
| 20260905161928 | 57 | 357 | 0.0 | 1.0 | 0.02 | 0.09 | 0.06 | 96 | 1017.2 |
| 20260905161528 | 57 | 47 | 0.0 | 1.0 | 0.02 | 0.09 | 0.06 | 96 | 1017.2 |
| 20260905161415 | 57 | 47 | 0.0 | 1.0 | 0.02 | 0.09 | 0.06 | 96 | 1017.1 |
| 20260905161016 | 57 | 46 | 0.0 | 0.0 | 0.02 | 0.09 | 0.06 | 97 | 1017.1 |
| 20260905160919 | 57 | 46 | 0.0 | 1.0 | 0.02 | 0.09 | 0.06 | 97 | 1017.1 |
| 20260905160525 | 57 | 46 | 0.0 | 1.0 | 0.02 | 0.09 | 0.06 | 96 | 1017.1 |
| 20260905160426 | 57 | 46 | 0.0 | 1.0 | 0.01 | 0.08 | 0.05 | 96 | 1017.2 |
| 20260905160021 | 57 | 46 | 0.0 | 1.0 | 0.01 | 0.15 | 0.05 | 96 | 1017.1 |
| 20260905155924 | 57 | 44 | 0.0 | 1.0 | 0.01 | 0.15 | 0.05 | 96 | 1017.1 |
| 20260905155530 | 57 | 44 | 0.0 | 1.0 | 0.01 | 0.15 | 0.05 | 96 | 1017.2 |
| 20260905155412 | 57 | 44 | 0.0 | 1.0 | 0.01 | 0.15 | 0.05 | 96 | 1017.2 |
| 20260905155017 | 57 | 36 | 0.0 | 1.0 | 0.01 | 0.15 | 0.05 | 96 | 1017.2 |
| 20260905154919 | 57 | 36 | 0.0 | 1.0 | 0.01 | 0.15 | 0.05 | 96 | 1017.2 |
| 20260905154523 | 57 | 36 | 0.0 | 1.0 | 0.00 | 0.14 | 0.04 | 97 | 1017.2 |
| 20260905154427 | 57 | 36 | 0.0 | 1.0 | 0.00 | 0.14 | 0.04 | 97 | 1017.2 |
| 20260905154030 | 57 | 36 | 0.0 | 1.0 | 0.00 | 0.14 | 0.04 | 96 | 1017.2 |
| 20260905153914 | 57 | 65 | 0.0 | 1.0 | 0.00 | 0.14 | 0.04 | 96 | 1017.3 |
| 20260905153520 | 57 | 65 | 0.0 | 1.0 | 0.00 | 0.14 | 0.04 | 96 | 1017.2 |
| 20260905153421 | 57 | 4 | 0.0 | 1.0 | 0.00 | 0.14 | 0.04 | 96 | 1017.2 |
| 20260905153027 | 57 | 77 | 0.0 | 0.0 | 0.00 | 0.14 | 0.04 | 97 | 1017.2 |
| 20260905152929 | 57 | 77 | 0.0 | 0.0 | 0.00 | 0.14 | 0.04 | 97 | 1017.2 |
| 20260905152515 | 57 | 77 | 0.0 | 0.0 | 0.00 | 0.14 | 0.04 | 97 | 1017.2 |
| 20260905152416 | 57 | 77 | 0.0 | 0.0 | 0.00 | 0.14 | 0.04 | 97 | 1017.2 |
| 20260905152022 | 57 | 79 | 0.0 | 1.0 | 0.00 | 0.14 | 0.04 | 97 | 1017.1 |
| 20260905151924 | 57 | 79 | 0.0 | 1.0 | 0.00 | 0.14 | 0.04 | 97 | 1017.2 |
| 20260905151528 | 57 | 79 | 0.0 | 1.0 | 0.00 | 0.14 | 0.04 | 97 | 1017.2 |
| 20260905151431 | 57 | 79 | 0.0 | 1.0 | 0.00 | 0.14 | 0.04 | 97 | 1017.2 |
| 20260905151016 | 57 | 78 | 0.0 | 1.0 | 0.00 | 0.14 | 0.04 | 97 | 1017.1 |
| 20260905150919 | 57 | 77 | 0.0 | 1.0 | 0.00 | 0.14 | 0.04 | 97 | 1017.1 |
| 20260905150526 | 57 | 75 | 0.0 | 2.0 | 0.00 | 0.14 | 0.04 | 97 | 1017.1 |
| 20260905150428 | 56 | 76 | 0.0 | 2.0 | 0.00 | 0.14 | 0.04 | 97 | 1017.2 |
| 20260905150020 | 56 | 76 | 0.0 | 2.0 | 0.00 | 0.28 | 0.04 | 97 | 1017.2 |
| 20260905145925 | 56 | 59 | 0.0 | 2.0 | 0.00 | 0.28 | 0.04 | 97 | 1017.1 |
| 20260905145526 | 56 | 23 | 0.0 | 1.0 | 0.00 | 0.28 | 0.04 | 96 | 1017.1 |
| 20260905145431 | 56 | 23 | 0.0 | 1.0 | 0.00 | 0.28 | 0.04 | 96 | 1017.2 |
| 20260905145033 | 56 | 24 | 0.0 | 1.0 | 0.00 | 0.28 | 0.04 | 97 | 1017.1 |
| 20260905144918 | 56 | 24 | 0.0 | 1.0 | 0.00 | 0.28 | 0.04 | 97 | 1017.1 |
| 20260905144519 | 56 | 352 | 0.0 | 0.0 | 0.00 | 0.28 | 0.04 | 97 | 1017.1 |
| 20260905144422 | 56 | 352 | 0.0 | 0.0 | 0.00 | 0.28 | 0.04 | 97 | 1017.1 |
| 20260905144030 | 56 | 352 | 0.0 | 0.0 | 0.00 | 0.28 | 0.04 | 97 | 1017.1 |
| 20260905143913 | 56 | 352 | 0.0 | 0.0 | 0.00 | 0.28 | 0.04 | 97 | 1017.1 |
| 20260905143521 | 56 | 352 | 0.0 | 1.0 | 0.00 | 0.28 | 0.04 | 97 | 1017.1 |
| 20260905143423 | 56 | 352 | 0.0 | 1.0 | 0.00 | 0.28 | 0.04 | 97 | 1017.1 |
| 20260905143030 | 56 | 328 | 0.0 | 1.0 | 0.00 | 0.28 | 0.04 | 97 | 1017.0 |
| 20260905142912 | 56 | 66 | 0.0 | 1.0 | 0.00 | 0.28 | 0.04 | 97 | 1017.1 |
| 20260905142517 | 56 | 69 | 0.0 | 1.0 | 0.01 | 0.28 | 0.04 | 97 | 1017.0 |
| 20260905142419 | 56 | 69 | 0.0 | 1.0 | 0.01 | 0.28 | 0.04 | 97 | 1017.1 |
| 20260905142024 | 56 | 69 | 0.0 | 1.0 | 0.01 | 0.28 | 0.04 | 97 | 1017.0 |
| 20260905141928 | 56 | 69 | 0.0 | 1.0 | 0.01 | 0.28 | 0.04 | 97 | 1017.0 |
| 20260905141513 | 56 | 70 | 0.0 | 1.0 | 0.01 | 0.28 | 0.04 | 97 | 1017.0 |
| 20260905141416 | 56 | 70 | 0.0 | 0.0 | 0.01 | 0.28 | 0.04 | 97 | 1017.0 |
| 20260905141022 | 56 | 70 | 0.0 | 0.0 | 0.01 | 0.28 | 0.04 | 97 | 1017.0 |
| 20260905140925 | 56 | 70 | 0.0 | 0.0 | 0.01 | 0.28 | 0.04 | 97 | 1016.9 |
| 20260905140531 | 56 | 70 | 0.0 | 0.0 | 0.01 | 0.28 | 0.04 | 96 | 1016.9 |
| 20260905140414 | 56 | 70 | 0.0 | 1.0 | 0.01 | 0.28 | 0.04 | 96 | 1017.0 |
| 20260905140030 | 56 | 70 | 0.0 | 1.0 | 0.01 | 0.34 | 0.04 | 96 | 1016.9 |
| 20260905135913 | 56 | 70 | 0.0 | 1.0 | 0.02 | 0.34 | 0.04 | 96 | 1016.9 |
| 20260905135520 | 56 | 70 | 0.0 | 2.0 | 0.02 | 0.34 | 0.04 | 96 | 1016.9 |
| 20260905135423 | 56 | 70 | 0.0 | 2.0 | 0.02 | 0.34 | 0.04 | 96 | 1016.9 |
| 20260905135028 | 56 | 70 | 0.0 | 2.0 | 0.02 | 0.34 | 0.04 | 97 | 1016.8 |
| 20260905134931 | 56 | 70 | 0.0 | 2.0 | 0.02 | 0.34 | 0.04 | 97 | 1016.9 |
| 20260905134517 | 56 | 275 | 0.0 | 0.0 | 0.02 | 0.34 | 0.04 | 97 | 1016.9 |
| 20260905134418 | 56 | 275 | 0.0 | 0.0 | 0.02 | 0.34 | 0.04 | 96 | 1016.9 |
| 20260905134023 | 56 | 273 | 0.0 | 1.0 | 0.02 | 0.34 | 0.04 | 96 | 1016.9 |
| 20260905133927 | 56 | 273 | 0.0 | 1.0 | 0.02 | 0.34 | 0.04 | 96 | 1016.9 |
| 20260905133514 | 56 | 273 | 0.0 | 1.0 | 0.02 | 0.34 | 0.04 | 96 | 1016.8 |
| 20260905133416 | 56 | 273 | 0.0 | 1.0 | 0.03 | 0.34 | 0.04 | 96 | 1016.8 |
| 20260905133021 | 56 | 13 | 0.0 | 1.0 | 0.03 | 0.34 | 0.04 | 97 | 1016.8 |
| 20260905132922 | 56 | 40 | 0.0 | 1.0 | 0.03 | 0.34 | 0.04 | 97 | 1016.8 |
| 20260905132525 | 56 | 56 | 0.0 | 1.0 | 0.02 | 0.33 | 0.03 | 97 | 1016.8 |
| 20260905132427 | 56 | 56 | 0.0 | 1.0 | 0.02 | 0.33 | 0.03 | 97 | 1016.8 |
| 20260905132028 | 56 | 345 | 0.0 | 1.0 | 0.02 | 0.33 | 0.03 | 97 | 1016.7 |
| 20260905131914 | 56 | 345 | 0.0 | 1.0 | 0.02 | 0.33 | 0.03 | 97 | 1016.8 |
| 20260905131514 | 56 | 345 | 0.0 | 1.0 | 0.02 | 0.33 | 0.03 | 96 | 1016.8 |
| 20260905131419 | 56 | 345 | 0.0 | 1.0 | 0.02 | 0.33 | 0.03 | 96 | 1016.8 |
| 20260905131019 | 56 | 345 | 0.0 | 1.0 | 0.02 | 0.33 | 0.03 | 96 | 1016.8 |
| 20260905130923 | 56 | 345 | 0.0 | 1.0 | 0.02 | 0.33 | 0.03 | 96 | 1016.8 |
| 20260905130525 | 56 | 345 | 0.0 | 0.0 | 0.02 | 0.33 | 0.03 | 96 | 1016.8 |
| 20260905130426 | 56 | 345 | 0.0 | 0.0 | 0.02 | 0.33 | 0.03 | 96 | 1016.7 |
| 20260905130022 | 56 | 345 | 0.0 | 0.0 | 0.02 | 0.50 | 0.03 | 96 | 1016.7 |
| 20260905125924 | 56 | 345 | 0.0 | 0.0 | 0.01 | 0.49 | 0.02 | 96 | 1016.7 |
| 20260905125529 | 56 | 345 | 0.0 | 0.0 | 0.02 | 0.49 | 0.02 | 96 | 1016.7 |
| 20260905125430 | 56 | 345 | 0.0 | 1.0 | 0.02 | 0.49 | 0.02 | 96 | 1016.8 |
| 20260905125017 | 56 | 285 | 0.0 | 2.0 | 0.02 | 0.49 | 0.02 | 96 | 1016.7 |
| 20260905124919 | 56 | 285 | 0.0 | 2.0 | 0.02 | 0.49 | 0.02 | 96 | 1016.7 |
| 20260905124526 | 56 | 285 | 0.0 | 2.0 | 0.02 | 0.49 | 0.02 | 97 | 1016.7 |
| 20260905124421 | 56 | 285 | 0.0 | 2.0 | 0.02 | 0.49 | 0.02 | 97 | 1016.7 |
| 20260905124024 | 56 | 81 | 0.0 | 1.0 | 0.02 | 0.49 | 0.02 | 97 | 1016.7 |
| 20260905123946 | 56 | 81 | 0.0 | 1.0 | 0.02 | 0.49 | 0.02 | 96 | 1016.7 |
| 20260905123530 | 56 | 43 | 0.0 | 1.0 | 0.02 | 0.49 | 0.02 | 97 | 1016.7 |
| 20260905123412 | 56 | 43 | 0.0 | 1.0 | 0.01 | 0.48 | 0.01 | 97 | 1016.7 |
| 20260905123017 | 56 | 311 | 0.0 | 1.0 | 0.01 | 0.48 | 0.01 | 97 | 1016.7 |
| 20260905122918 | 56 | 311 | 0.0 | 1.0 | 0.01 | 0.48 | 0.01 | 97 | 1016.7 |
| 20260905122522 | 55 | 41 | 0.0 | 1.0 | 0.01 | 0.48 | 0.01 | 96 | 1016.7 |
| 20260905122424 | 55 | 41 | 0.0 | 1.0 | 0.01 | 0.48 | 0.01 | 96 | 1016.7 |
| 20260905122031 | 55 | 41 | 0.0 | 1.0 | 0.01 | 0.48 | 0.01 | 97 | 1016.6 |
| 20260905121913 | 55 | 41 | 0.0 | 1.0 | 0.01 | 0.48 | 0.01 | 97 | 1016.6 |
| 20260905121519 | 55 | 238 | 0.0 | 0.0 | 0.01 | 0.48 | 0.01 | 96 | 1016.7 |
| 20260905121423 | 55 | 238 | 0.0 | 0.0 | 0.01 | 0.48 | 0.01 | 96 | 1016.7 |
| 20260905121029 | 55 | 238 | 0.0 | 0.0 | 0.01 | 0.48 | 0.01 | 96 | 1016.6 |
| 20260905120913 | 55 | 238 | 0.0 | 0.0 | 0.01 | 0.48 | 0.01 | 96 | 1016.6 |
| 20260905120521 | 55 | 238 | 0.0 | 0.0 | 0.01 | 0.48 | 0.01 | 96 | 1016.6 |
| 20260905120423 | 55 | 238 | 0.0 | 0.0 | 0.01 | 0.48 | 0.01 | 96 | 1016.6 |
| 20260905120014 | 55 | 238 | 0.0 | 0.0 | 0.01 | 0.54 | 0.01 | 96 | 1016.6 |
| 20260905115922 | 55 | 238 | 0.0 | 0.0 | 0.01 | 0.54 | 0.01 | 96 | 1016.6 |
| 20260905115524 | 55 | 238 | 0.0 | 0.0 | 0.00 | 0.53 | 0.00 | 96 | 1016.7 |
| 20260905115432 | 55 | 238 | 0.0 | 0.0 | 0.00 | 0.53 | 0.00 | 96 | 1016.6 |
| 20260905115032 | 55 | 238 | 0.0 | 0.0 | 0.00 | 0.53 | 0.00 | 96 | 1016.6 |
| 20260905114916 | 55 | 238 | 0.0 | 0.0 | 0.00 | 0.53 | 0.00 | 96 | 1016.6 |
| 20260905114517 | 55 | 238 | 0.0 | 0.0 | 0.00 | 0.53 | 0.00 | 96 | 1016.6 |
| 20260905114420 | 55 | 238 | 0.0 | 0.0 | 0.00 | 0.53 | 0.00 | 96 | 1016.6 |
| 20260905114024 | 55 | 238 | 0.0 | 0.0 | 0.00 | 0.53 | 0.00 | 96 | 1016.7 |
| 20260905113926 | 55 | 238 | 0.0 | 0.0 | 0.00 | 0.53 | 0.00 | 96 | 1016.6 |
| 20260905113531 | 55 | 238 | 0.0 | 0.0 | 0.00 | 0.53 | 0.00 | 96 | 1016.6 |
| 20260905113412 | 55 | 238 | 0.0 | 0.0 | 0.00 | 0.53 | 0.00 | 96 | 1016.6 |
| 20260905113016 | 55 | 238 | 0.0 | 0.0 | 0.00 | 0.53 | 0.00 | 96 | 1016.6 |
| 20260905112920 | 55 | 238 | 0.0 | 0.0 | 0.00 | 0.53 | 0.00 | 96 | 1016.6 |
| 20260905112526 | 55 | 238 | 0.0 | 0.0 | 0.00 | 0.53 | 0.00 | 96 | 1016.6 |
| 20260905112429 | 55 | 238 | 0.0 | 0.0 | 0.00 | 0.53 | 0.00 | 96 | 1016.6 |
| 20260905112015 | 55 | 238 | 0.0 | 0.0 | 0.00 | 0.53 | 0.00 | 96 | 1016.5 |
| 20260905111918 | 55 | 238 | 0.0 | 0.0 | 0.00 | 0.53 | 0.00 | 96 | 1016.5 |
| 20260905111523 | 55 | 238 | 0.0 | 0.0 | 0.00 | 0.53 | 0.00 | 96 | 1016.5 |
| 20260905111427 | 55 | 238 | 0.0 | 0.0 | 0.00 | 0.53 | 0.00 | 96 | 1016.5 |
| 20260905111014 | 55 | 238 | 0.0 | 0.0 | 0.00 | 0.53 | 0.00 | 96 | 1016.6 |
| 20260905110917 | 55 | 238 | 0.0 | 0.0 | 0.00 | 0.53 | 0.00 | 96 | 1016.6 |
| 20260905110523 | 55 | 238 | 0.0 | 0.0 | 0.00 | 0.53 | 0.00 | 96 | 1016.5 |
| 20260905110424 | 55 | 238 | 0.0 | 0.0 | 0.00 | 0.53 | 0.00 | 96 | 1016.6 |
| 20260905110018 | 55 | 238 | 0.0 | 1.0 | 0.00 | 0.56 | 0.00 | 96 | 1016.6 |
| 20260905105922 | 55 | 238 | 0.0 | 1.0 | 0.00 | 0.56 | 0.00 | 96 | 1016.6 |
| 20260905105527 | 55 | 238 | 0.0 | 1.0 | 0.00 | 0.56 | 0.00 | 96 | 1016.5 |
| 20260905105431 | 55 | 238 | 0.0 | 1.0 | 0.00 | 0.56 | 0.00 | 96 | 1016.5 |
| 20260905105017 | 54 | 221 | 0.0 | 1.0 | 0.00 | 0.56 | 0.00 | 96 | 1016.5 |
| 20260905104920 | 54 | 221 | 0.0 | 1.0 | 0.00 | 0.56 | 0.00 | 96 | 1016.5 |
| 20260905104526 | 54 | 275 | 0.0 | 1.0 | 0.00 | 0.56 | 0.00 | 96 | 1016.5 |
| 20260905104430 | 54 | 276 | 0.0 | 1.0 | 0.00 | 0.56 | 0.00 | 96 | 1016.5 |
| 20260905104016 | 54 | 269 | 0.0 | 0.0 | 0.00 | 0.56 | 0.00 | 96 | 1016.6 |
| 20260905103920 | 54 | 269 | 0.0 | 0.0 | 0.00 | 0.56 | 0.00 | 96 | 1016.6 |
| 20260905103527 | 54 | 269 | 0.0 | 0.0 | 0.00 | 0.56 | 0.00 | 96 | 1016.6 |
| 20260905103429 | 54 | 269 | 0.0 | 0.0 | 0.00 | 0.56 | 0.00 | 96 | 1016.5 |
| 20260905103015 | 54 | 269 | 0.0 | 0.0 | 0.00 | 0.56 | 0.00 | 96 | 1016.6 |
| 20260905102919 | 54 | 269 | 0.0 | 0.0 | 0.00 | 0.56 | 0.00 | 96 | 1016.6 |
| 20260905102525 | 54 | 269 | 0.0 | 0.0 | 0.00 | 0.56 | 0.00 | 96 | 1016.6 |
| 20260905102430 | 54 | 269 | 0.0 | 0.0 | 0.00 | 0.56 | 0.00 | 96 | 1016.6 |
| 20260905102015 | 54 | 269 | 0.0 | 0.0 | 0.00 | 0.56 | 0.00 | 96 | 1016.6 |
| 20260905101917 | 54 | 269 | 0.0 | 0.0 | 0.00 | 0.56 | 0.00 | 96 | 1016.6 |
| 20260905101520 | 54 | 269 | 0.0 | 0.0 | 0.00 | 0.56 | 0.00 | 96 | 1016.5 |
| 20260905101428 | 54 | 269 | 0.0 | 0.0 | 0.00 | 0.56 | 0.00 | 96 | 1016.6 |
| 20260905101030 | 54 | 270 | 0.0 | 0.0 | 0.00 | 0.56 | 0.00 | 96 | 1016.6 |
| 20260905100917 | 54 | 269 | 0.0 | 0.0 | 0.00 | 0.56 | 0.00 | 96 | 1016.6 |
| 20260905100519 | 54 | 269 | 0.0 | 0.0 | 0.00 | 0.56 | 0.00 | 96 | 1016.6 |
| 20260905100426 | 54 | 269 | 0.0 | 0.0 | 0.00 | 0.56 | 0.00 | 96 | 1016.6 |
| 20260905100016 | 54 | 269 | 0.0 | 0.0 | 0.00 | 0.58 | 0.00 | 96 | 1016.6 |
| 20260905095919 | 54 | 269 | 0.0 | 0.0 | 0.00 | 0.58 | 0.00 | 96 | 1016.6 |
| 20260905095525 | 54 | 269 | 0.0 | 0.0 | 0.00 | 0.58 | 0.00 | 96 | 1016.7 |
| 20260905095428 | 54 | 269 | 0.0 | 0.0 | 0.00 | 0.58 | 0.00 | 96 | 1016.6 |
| 20260905095032 | 54 | 270 | 0.0 | 0.0 | 0.00 | 0.58 | 0.00 | 96 | 1016.6 |
| 20260905094915 | 54 | 269 | 0.0 | 0.0 | 0.00 | 0.58 | 0.00 | 96 | 1016.6 |
| 20260905094522 | 54 | 269 | 0.0 | 0.0 | 0.00 | 0.58 | 0.00 | 96 | 1016.7 |
| 20260905094425 | 54 | 270 | 0.0 | 0.0 | 0.00 | 0.58 | 0.00 | 96 | 1016.6 |
| 20260905094029 | 54 | 269 | 0.0 | 0.0 | 0.00 | 0.58 | 0.00 | 96 | 1016.6 |
| 20260905093931 | 54 | 269 | 0.0 | 0.0 | 0.00 | 0.58 | 0.00 | 96 | 1016.6 |
| 20260905093518 | 54 | 269 | 0.0 | 0.0 | 0.00 | 0.58 | 0.00 | 96 | 1016.6 |
| 20260905093420 | 54 | 269 | 0.0 | 0.0 | 0.00 | 0.58 | 0.00 | 96 | 1016.6 |
| 20260905093028 | 53 | 269 | 0.0 | 0.0 | 0.00 | 0.58 | 0.00 | 96 | 1016.6 |
| 20260905092912 | 53 | 269 | 0.0 | 0.0 | 0.00 | 0.58 | 0.00 | 96 | 1016.6 |
| 20260905092517 | 53 | 269 | 0.0 | 0.0 | 0.00 | 0.58 | 0.00 | 96 | 1016.6 |
| 20260905092420 | 53 | 269 | 0.0 | 0.0 | 0.00 | 0.58 | 0.00 | 96 | 1016.6 |
| 20260905092025 | 53 | 269 | 0.0 | 0.0 | 0.00 | 0.58 | 0.00 | 96 | 1016.5 |
| 20260905091928 | 53 | 269 | 0.0 | 0.0 | 0.00 | 0.58 | 0.00 | 96 | 1016.5 |
| 20260905091513 | 53 | 270 | 0.0 | 0.0 | 0.00 | 0.58 | 0.00 | 96 | 1016.4 |
| 20260905091415 | 53 | 269 | 0.0 | 0.0 | 0.00 | 0.58 | 0.00 | 96 | 1016.3 |
| 20260905091020 | 53 | 269 | 0.0 | 0.0 | 0.00 | 0.58 | 0.00 | 96 | 1016.2 |
| 20260905090923 | 53 | 269 | 0.0 | 0.0 | 0.00 | 0.58 | 0.00 | 96 | 1016.3 |
| 20260905090530 | 53 | 269 | 0.0 | 0.0 | 0.00 | 0.58 | 0.00 | 96 | 1016.2 |
| 20260905090430 | 53 | 269 | 0.0 | 0.0 | 0.00 | 0.58 | 0.00 | 96 | 1016.2 |
| 20260905090026 | 53 | 269 | 0.0 | 0.0 | 0.00 | 0.58 | 0.00 | 96 | 1016.3 |
| 20260905085929 | 53 | 269 | 0.0 | 0.0 | 0.00 | 0.58 | 0.00 | 96 | 1016.3 |
| 20260905085513 | 54 | 269 | 0.0 | 0.0 | 0.00 | 0.58 | 0.00 | 96 | 1016.2 |
| 20260905085415 | 54 | 270 | 0.0 | 0.0 | 0.00 | 0.58 | 0.00 | 96 | 1016.2 |
| 20260905085021 | 54 | 269 | 0.0 | 0.0 | 0.00 | 0.58 | 0.00 | 96 | 1016.2 |
| 20260905084923 | 54 | 269 | 0.0 | 0.0 | 0.00 | 0.58 | 0.00 | 96 | 1016.2 |
| 20260905084526 | 54 | 269 | 0.0 | 0.0 | 0.00 | 0.58 | 0.00 | 96 | 1016.2 |
| 20260905084413 | 54 | 269 | 0.0 | 0.0 | 0.00 | 0.58 | 0.00 | 96 | 1016.2 |
| 20260905084013 | 54 | 269 | 0.0 | 0.0 | 0.00 | 0.58 | 0.00 | 95 | 1016.2 |
| 20260905083919 | 54 | 269 | 0.0 | 0.0 | 0.00 | 0.58 | 0.00 | 95 | 1016.2 |
| 20260905083522 | 54 | 269 | 0.0 | 0.0 | 0.00 | 0.58 | 0.00 | 96 | 1016.2 |
| 20260905083428 | 54 | 269 | 0.0 | 0.0 | 0.00 | 0.58 | 0.00 | 96 | 1016.2 |
| 20260905083031 | 54 | 269 | 0.0 | 0.0 | 0.00 | 0.58 | 0.00 | 96 | 1016.2 |
| 20260905082919 | 54 | 269 | 0.0 | 0.0 | 0.00 | 0.58 | 0.00 | 96 | 1016.2 |
| 20260905082520 | 54 | 269 | 0.0 | 0.0 | 0.00 | 0.58 | 0.00 | 96 | 1016.1 |
| 20260905082424 | 54 | 269 | 0.0 | 0.0 | 0.00 | 0.58 | 0.00 | 96 | 1016.2 |
| 20260905082030 | 54 | 269 | 0.0 | 0.0 | 0.00 | 0.58 | 0.00 | 95 | 1016.1 |
| 20260905081914 | 54 | 270 | 0.0 | 0.0 | 0.00 | 0.58 | 0.00 | 95 | 1016.2 |
| 20260905081520 | 54 | 269 | 0.0 | 0.0 | 0.00 | 0.58 | 0.00 | 95 | 1016.2 |
| 20260905081423 | 54 | 269 | 0.0 | 0.0 | 0.00 | 0.58 | 0.00 | 95 | 1016.2 |
| 20260905081028 | 54 | 270 | 0.0 | 0.0 | 0.00 | 0.58 | 0.00 | 95 | 1016.2 |
| 20260905080911 | 54 | 269 | 0.0 | 0.0 | 0.00 | 0.58 | 0.00 | 95 | 1016.1 |
| 20260905080521 | 54 | 269 | 0.0 | 0.0 | 0.00 | 0.58 | 0.00 | 95 | 1016.2 |
| 20260905080423 | 54 | 269 | 0.0 | 0.0 | 0.00 | 0.58 | 0.00 | 95 | 1016.2 |
| 20260905080021 | 54 | 269 | 0.0 | 0.0 | 0.00 | 1.02 | 0.00 | 95 | 1016.1 |
| 20260905075925 | 54 | 269 | 0.0 | 0.0 | 0.00 | 1.02 | 0.00 | 95 | 1016.2 |
| 20260905075529 | 55 | 269 | 0.0 | 0.0 | 0.00 | 1.02 | 0.00 | 95 | 1016.2 |
| 20260905075430 | 55 | 269 | 0.0 | 0.0 | 0.00 | 1.02 | 0.00 | 95 | 1016.2 |
| 20260905075031 | 55 | 269 | 0.0 | 0.0 | 0.00 | 1.02 | 0.00 | 95 | 1016.1 |
| 20260905074914 | 55 | 269 | 0.0 | 0.0 | 0.00 | 1.02 | 0.00 | 95 | 1016.0 |
| 20260905074520 | 55 | 270 | 0.0 | 0.0 | 0.00 | 1.02 | 0.00 | 95 | 1016.0 |
| 20260905074422 | 55 | 269 | 0.0 | 0.0 | 0.00 | 1.02 | 0.00 | 95 | 1016.1 |
| 20260905074025 | 55 | 269 | 0.0 | 0.0 | 0.00 | 1.02 | 0.00 | 95 | 1016.0 |
| 20260905073928 | 55 | 269 | 0.0 | 0.0 | 0.00 | 1.02 | 0.00 | 95 | 1015.9 |
| 20260905073534 | 55 | 269 | 0.0 | 0.0 | 0.00 | 1.02 | 0.00 | 95 | 1016.0 |
| 20260905073416 | 56 | 269 | 0.0 | 0.0 | 0.00 | 1.02 | 0.00 | 95 | 1015.9 |
| 20260905073022 | 56 | 269 | 0.0 | 0.0 | 0.00 | 1.02 | 0.00 | 95 | 1015.9 |
| 20260905072925 | 56 | 269 | 0.0 | 0.0 | 0.00 | 1.02 | 0.00 | 95 | 1015.9 |
| 20260905072530 | 56 | 270 | 0.0 | 0.0 | 0.00 | 1.02 | 0.00 | 95 | 1015.9 |
| 20260905072413 | 56 | 269 | 0.0 | 0.0 | 0.00 | 1.02 | 0.00 | 95 | 1015.9 |
| 20260905072019 | 56 | 269 | 0.0 | 0.0 | 0.00 | 1.02 | 0.00 | 95 | 1015.8 |
| 20260905071921 | 56 | 269 | 0.0 | 0.0 | 0.00 | 1.02 | 0.00 | 95 | 1015.8 |
| 20260905071527 | 56 | 269 | 0.0 | 0.0 | 0.00 | 1.02 | 0.00 | 95 | 1015.9 |
| 20260905071429 | 56 | 269 | 0.0 | 0.0 | 0.00 | 1.02 | 0.00 | 95 | 1015.8 |
| 20260905071015 | 56 | 269 | 0.0 | 0.0 | 0.00 | 1.02 | 0.00 | 95 | 1015.8 |
| 20260905070919 | 56 | 269 | 0.0 | 0.0 | 0.00 | 1.02 | 0.00 | 95 | 1015.8 |
| 20260905070526 | 56 | 269 | 0.0 | 0.0 | 0.00 | 1.02 | 0.00 | 95 | 1015.8 |
| 20260905070428 | 56 | 269 | 0.0 | 0.0 | 0.00 | 1.02 | 0.00 | 95 | 1015.8 |
| 20260905070039 | 57 | 269 | 0.0 | 0.0 | 0.00 | 1.26 | 1.02 | 95 | 1015.8 |
| 20260905065920 | 57 | 269 | 0.0 | 0.0 | 0.00 | 1.26 | 1.02 | 95 | 1015.8 |
| 20260905065522 | 57 | 271 | 0.0 | 0.0 | 0.00 | 1.26 | 1.02 | 95 | 1015.8 |
| 20260905065424 | 57 | 271 | 0.0 | 0.0 | 0.00 | 1.26 | 1.02 | 95 | 1015.8 |
| 20260905065031 | 57 | 271 | 0.0 | 0.0 | 0.00 | 1.26 | 1.02 | 95 | 1015.8 |
| 20260905064915 | 57 | 271 | 0.0 | 0.0 | 0.00 | 1.26 | 1.02 | 95 | 1015.9 |
| 20260905064522 | 57 | 271 | 0.0 | 0.0 | 0.00 | 1.26 | 1.02 | 95 | 1015.8 |
| 20260905064423 | 57 | 271 | 0.0 | 0.0 | 0.00 | 1.26 | 1.02 | 95 | 1015.8 |
| 20260905064027 | 57 | 271 | 0.0 | 0.0 | 0.00 | 1.26 | 1.02 | 95 | 1015.8 |
| 20260905063930 | 57 | 271 | 0.0 | 0.0 | 0.00 | 1.26 | 1.02 | 95 | 1015.8 |
| 20260905063519 | 57 | 271 | 0.0 | 0.0 | 0.00 | 1.26 | 1.02 | 95 | 1015.7 |
| 20260905063421 | 57 | 271 | 0.0 | 0.0 | 0.00 | 1.26 | 1.02 | 95 | 1015.7 |
| 20260905063026 | 57 | 271 | 0.0 | 0.0 | 0.00 | 1.26 | 1.02 | 95 | 1015.8 |
| 20260905062929 | 57 | 271 | 0.0 | 0.0 | 0.00 | 1.26 | 1.02 | 95 | 1015.8 |
| 20260905062514 | 57 | 271 | 0.0 | 0.0 | 0.00 | 1.26 | 1.02 | 95 | 1015.8 |
| 20260905062417 | 57 | 271 | 0.0 | 0.0 | 0.00 | 1.26 | 1.02 | 95 | 1015.8 |
| 20260905062023 | 57 | 271 | 0.0 | 0.0 | 0.00 | 1.26 | 1.02 | 95 | 1015.8 |
| 20260905061927 | 57 | 271 | 0.0 | 0.0 | 0.00 | 1.26 | 1.02 | 95 | 1015.8 |
| 20260905061532 | 57 | 271 | 0.0 | 0.0 | 0.00 | 1.26 | 1.02 | 95 | 1015.8 |
| 20260905061414 | 57 | 271 | 0.0 | 1.0 | 0.00 | 1.26 | 1.02 | 95 | 1015.7 |
| 20260905061021 | 57 | 271 | 0.0 | 1.0 | 0.00 | 1.26 | 1.02 | 95 | 1015.8 |
| 20260905060923 | 57 | 271 | 0.0 | 1.0 | 0.00 | 1.26 | 1.02 | 95 | 1015.7 |
| 20260905060530 | 57 | 271 | 0.0 | 1.0 | 0.00 | 1.26 | 1.02 | 95 | 1015.6 |
| 20260905060412 | 57 | 271 | 0.0 | 0.0 | 0.01 | 1.26 | 1.02 | 95 | 1015.6 |
| 20260905060032 | 57 | 271 | 0.0 | 0.0 | 0.01 | 1.30 | 1.02 | 95 | 1015.7 |
| 20260905055915 | 57 | 271 | 0.0 | 0.0 | 0.01 | 1.30 | 1.02 | 95 | 1015.7 |
| 20260905055519 | 57 | 271 | 0.0 | 0.0 | 0.01 | 1.30 | 1.02 | 95 | 1015.6 |
| 20260905055422 | 57 | 271 | 0.0 | 0.0 | 0.01 | 1.30 | 1.02 | 95 | 1015.6 |
| 20260905055026 | 57 | 271 | 0.0 | 0.0 | 0.01 | 1.30 | 1.02 | 95 | 1015.6 |
| 20260905054928 | 57 | 271 | 0.0 | 0.0 | 0.01 | 1.30 | 1.02 | 95 | 1015.7 |
| 20260905054514 | 57 | 271 | 0.0 | 0.0 | 0.01 | 1.30 | 1.02 | 95 | 1015.7 |
| 20260905054417 | 57 | 271 | 0.0 | 0.0 | 0.01 | 1.30 | 1.02 | 95 | 1015.7 |
| 20260905054023 | 57 | 271 | 0.0 | 0.0 | 0.01 | 1.30 | 1.02 | 95 | 1015.8 |
| 20260905053927 | 57 | 271 | 0.0 | 0.0 | 0.01 | 1.30 | 1.02 | 95 | 1015.8 |
| 20260905053533 | 57 | 271 | 0.0 | 0.0 | 0.01 | 1.30 | 1.02 | 95 | 1015.7 |
| 20260905053414 | 57 | 271 | 0.0 | 0.0 | 0.01 | 1.30 | 1.02 | 95 | 1015.6 |
| 20260905053017 | 57 | 271 | 0.0 | 0.0 | 0.01 | 1.30 | 1.02 | 95 | 1015.7 |
| 20260905052919 | 57 | 271 | 0.0 | 0.0 | 0.01 | 1.30 | 1.02 | 95 | 1015.7 |
| 20260905052519 | 57 | 271 | 0.0 | 0.0 | 0.01 | 1.30 | 1.02 | 95 | 1015.8 |
| 20260905052425 | 57 | 271 | 0.0 | 0.0 | 0.01 | 1.30 | 1.02 | 95 | 1015.8 |
| 20260905052026 | 57 | 271 | 0.0 | 0.0 | 0.01 | 1.30 | 1.02 | 95 | 1015.8 |
| 20260905051914 | 57 | 271 | 0.0 | 0.0 | 0.01 | 1.30 | 1.02 | 95 | 1015.8 |
| 20260905051517 | 57 | 271 | 0.0 | 0.0 | 0.01 | 1.30 | 1.02 | 95 | 1015.8 |
| 20260905051424 | 57 | 271 | 0.0 | 0.0 | 0.01 | 1.30 | 1.02 | 95 | 1015.8 |
| 20260905051028 | 57 | 269 | 0.0 | 0.0 | 0.01 | 1.30 | 1.02 | 95 | 1015.8 |
| 20260905050915 | 57 | 269 | 0.0 | 0.0 | 0.01 | 1.30 | 1.02 | 95 | 1015.8 |
| 20260905050520 | 57 | 269 | 0.0 | 0.0 | 0.01 | 1.30 | 1.02 | 95 | 1015.8 |
| 20260905050422 | 57 | 269 | 0.0 | 0.0 | 0.00 | 1.29 | 1.01 | 95 | 1015.8 |
| 20260905050016 | 57 | 269 | 0.0 | 0.0 | 0.00 | 1.31 | 1.01 | 95 | 1015.7 |
| 20260905045918 | 57 | 269 | 0.0 | 0.0 | 0.00 | 1.31 | 1.01 | 95 | 1015.6 |
| 20260905045522 | 57 | 269 | 0.0 | 0.0 | 0.00 | 1.31 | 1.01 | 95 | 1015.6 |
| 20260905045424 | 57 | 269 | 0.0 | 0.0 | 0.00 | 1.31 | 1.01 | 95 | 1015.5 |
| 20260905045029 | 57 | 270 | 0.0 | 0.0 | 0.00 | 1.31 | 1.01 | 95 | 1015.5 |
| 20260905044913 | 57 | 269 | 0.0 | 0.0 | 0.00 | 1.31 | 1.01 | 95 | 1015.4 |
| 20260905044518 | 57 | 269 | 0.0 | 0.0 | 0.00 | 1.31 | 1.01 | 95 | 1015.4 |
| 20260905044422 | 57 | 269 | 0.0 | 0.0 | 0.00 | 1.31 | 1.01 | 95 | 1015.4 |
| 20260905044028 | 57 | 269 | 0.0 | 0.0 | 0.00 | 1.31 | 1.01 | 95 | 1015.3 |
| 20260905043932 | 57 | 269 | 0.0 | 0.0 | 0.00 | 1.31 | 1.01 | 95 | 1015.3 |
| 20260905043520 | 57 | 269 | 0.0 | 0.0 | 0.00 | 1.31 | 1.01 | 95 | 1015.4 |
| 20260905043419 | 57 | 269 | 0.0 | 0.0 | 0.00 | 1.31 | 1.01 | 95 | 1015.3 |
| 20260905043024 | 57 | 269 | 0.0 | 0.0 | 0.00 | 1.31 | 1.01 | 95 | 1015.3 |
| 20260905042927 | 57 | 269 | 0.0 | 0.0 | 0.00 | 1.31 | 1.01 | 95 | 1015.3 |
| 20260905042531 | 57 | 269 | 0.0 | 0.0 | 0.00 | 1.31 | 1.01 | 95 | 1015.3 |
| 20260905042414 | 57 | 269 | 0.0 | 0.0 | 0.00 | 1.31 | 1.01 | 95 | 1015.3 |
| 20260905042021 | 57 | 269 | 0.0 | 0.0 | 0.00 | 1.31 | 1.01 | 95 | 1015.3 |
| 20260905041923 | 57 | 269 | 0.0 | 0.0 | 0.00 | 1.31 | 1.01 | 95 | 1015.3 |
| 20260905041528 | 57 | 269 | 0.0 | 0.0 | 0.00 | 1.31 | 1.01 | 95 | 1015.3 |
| 20260905041429 | 57 | 269 | 0.0 | 0.0 | 0.00 | 1.31 | 1.01 | 95 | 1015.3 |
| 20260905041015 | 57 | 269 | 0.0 | 0.0 | 0.00 | 1.31 | 1.01 | 94 | 1015.2 |
| 20260905040918 | 57 | 269 | 0.0 | 0.0 | 0.00 | 1.31 | 1.01 | 94 | 1015.2 |
| 20260905040524 | 57 | 269 | 0.0 | 0.0 | 0.00 | 1.31 | 1.01 | 94 | 1015.2 |
| 20260905040427 | 57 | 269 | 0.0 | 0.0 | 0.00 | 1.31 | 1.01 | 94 | 1015.2 |
| 20260905040021 | 57 | 269 | 0.0 | 0.0 | 0.00 | 1.33 | 1.01 | 94 | 1015.2 |
| 20260905035923 | 57 | 269 | 0.0 | 0.0 | 0.00 | 1.33 | 1.01 | 94 | 1015.3 |
| 20260905035524 | 57 | 269 | 0.0 | 0.0 | 0.00 | 1.33 | 1.01 | 94 | 1015.2 |
| 20260905035430 | 57 | 269 | 0.0 | 0.0 | 0.00 | 1.33 | 1.01 | 94 | 1015.3 |
| 20260905035030 | 57 | 269 | 0.0 | 0.0 | 0.00 | 1.33 | 1.01 | 94 | 1015.1 |
| 20260905034918 | 57 | 269 | 0.0 | 0.0 | 0.00 | 1.33 | 1.01 | 94 | 1015.0 |
| 20260905034521 | 57 | 269 | 0.0 | 0.0 | 0.00 | 1.33 | 1.01 | 94 | 1014.8 |
| 20260905034426 | 57 | 269 | 0.0 | 0.0 | 0.00 | 1.33 | 1.01 | 94 | 1014.8 |
| 20260905034028 | 57 | 269 | 0.0 | 0.0 | 0.00 | 1.33 | 1.01 | 94 | 1014.6 |
| 20260905033915 | 57 | 269 | 0.0 | 0.0 | 0.00 | 1.33 | 1.01 | 94 | 1014.7 |
| 20260905033519 | 57 | 269 | 0.0 | 0.0 | 0.00 | 1.33 | 1.01 | 94 | 1014.7 |
| 20260905033419 | 57 | 269 | 0.0 | 0.0 | 0.00 | 1.33 | 1.01 | 94 | 1014.6 |
| 20260905033023 | 57 | 269 | 0.0 | 0.0 | 0.00 | 1.33 | 1.01 | 94 | 1014.6 |
| 20260905032926 | 57 | 269 | 0.0 | 0.0 | 0.00 | 1.33 | 1.01 | 94 | 1014.6 |
| 20260905032531 | 57 | 269 | 0.0 | 0.0 | 0.00 | 1.33 | 1.01 | 93 | 1014.5 |
| 20260905032415 | 57 | 269 | 0.0 | 0.0 | 0.00 | 1.33 | 1.01 | 93 | 1014.6 |
| 20260905032021 | 57 | 269 | 0.0 | 0.0 | 0.00 | 1.33 | 1.01 | 93 | 1014.6 |
| 20260905031923 | 57 | 269 | 0.0 | 0.0 | 0.00 | 1.33 | 1.01 | 93 | 1014.6 |
| 20260905031528 | 57 | 269 | 0.0 | 0.0 | 0.00 | 1.33 | 1.01 | 93 | 1014.6 |
| 20260905031430 | 57 | 269 | 0.0 | 0.0 | 0.00 | 1.33 | 1.01 | 93 | 1014.6 |
| 20260905031016 | 58 | 269 | 0.0 | 0.0 | 0.00 | 1.33 | 1.01 | 93 | 1014.5 |
| 20260905030920 | 58 | 269 | 0.0 | 0.0 | 0.00 | 1.33 | 1.01 | 93 | 1014.5 |
| 20260905030526 | 58 | 269 | 0.0 | 0.0 | 0.00 | 1.33 | 1.01 | 93 | 1014.6 |
| 20260905030429 | 58 | 269 | 0.0 | 0.0 | 0.00 | 1.33 | 1.01 | 93 | 1014.6 |
| 20260905030025 | 58 | 269 | 0.0 | 0.0 | 0.00 | 1.55 | 1.01 | 93 | 1014.6 |
| 20260905025929 | 58 | 269 | 0.0 | 0.0 | 0.00 | 1.55 | 1.01 | 93 | 1014.6 |
| 20260905025533 | 58 | 269 | 0.0 | 0.0 | 0.00 | 1.55 | 1.01 | 93 | 1014.6 |
| 20260905025415 | 58 | 269 | 0.0 | 0.0 | 0.00 | 1.55 | 1.01 | 93 | 1014.5 |
| 20260905025019 | 58 | 269 | 0.0 | 0.0 | 0.00 | 1.55 | 1.01 | 93 | 1014.6 |
| 20260905024920 | 58 | 269 | 0.0 | 0.0 | 0.00 | 1.55 | 1.01 | 93 | 1014.5 |
| 20260905024524 | 58 | 269 | 0.0 | 1.0 | 0.00 | 1.55 | 1.01 | 92 | 1014.5 |
| 20260905024426 | 58 | 269 | 0.0 | 1.0 | 0.00 | 1.55 | 1.01 | 92 | 1014.6 |
| 20260905024031 | 58 | 269 | 0.0 | 1.0 | 0.00 | 1.55 | 1.01 | 92 | 1014.7 |
| 20260905023913 | 59 | 269 | 0.0 | 1.0 | 0.00 | 1.55 | 1.01 | 92 | 1014.6 |
| 20260905023522 | 59 | 269 | 0.0 | 1.0 | 0.00 | 1.55 | 1.01 | 91 | 1014.7 |
| 20260905023422 | 59 | 269 | 0.0 | 1.0 | 0.00 | 1.55 | 1.01 | 91 | 1014.6 |
| 20260905023030 | 59 | 269 | 0.0 | 1.0 | 0.00 | 1.55 | 1.01 | 91 | 1014.7 |
| 20260905022913 | 59 | 269 | 0.0 | 1.0 | 0.00 | 1.55 | 1.01 | 91 | 1014.7 |
| 20260905022518 | 59 | 269 | 0.0 | 1.0 | 0.00 | 1.55 | 1.01 | 91 | 1014.6 |
| 20260905022420 | 59 | 269 | 0.0 | 1.0 | 0.00 | 1.55 | 1.01 | 91 | 1014.7 |
| 20260905022023 | 59 | 270 | 0.0 | 1.0 | 0.00 | 1.55 | 1.01 | 91 | 1014.6 |
| 20260905021925 | 59 | 270 | 0.0 | 1.0 | 0.00 | 1.55 | 1.01 | 91 | 1014.7 |
| 20260905021525 | 59 | 270 | 0.0 | 2.0 | 0.00 | 1.55 | 1.01 | 90 | 1014.6 |
| 20260905021432 | 59 | 270 | 0.0 | 2.0 | 0.00 | 1.55 | 1.01 | 90 | 1014.6 |
| 20260905021033 | 60 | 270 | 1.0 | 2.0 | 0.00 | 1.55 | 1.01 | 89 | 1014.5 |
| 20260905020920 | 60 | 265 | 0.0 | 1.0 | 0.00 | 1.55 | 1.01 | 91 | 1014.6 |
| 20260905020523 | 60 | 256 | 0.0 | 0.0 | 0.00 | 1.55 | 1.01 | 91 | 1014.6 |
| 20260905020429 | 60 | 256 | 0.0 | 0.0 | 0.00 | 1.55 | 1.01 | 91 | 1014.6 |
| 20260905020022 | 60 | 256 | 0.0 | 1.0 | 0.00 | 1.89 | 1.01 | 90 | 1014.5 |
| 20260905015925 | 60 | 256 | 0.0 | 1.0 | 0.00 | 1.89 | 1.01 | 91 | 1014.5 |
| 20260905015532 | 60 | 256 | 0.0 | 1.0 | 0.00 | 1.89 | 1.01 | 90 | 1014.5 |
| 20260905015415 | 60 | 256 | 0.0 | 1.0 | 0.01 | 1.89 | 1.01 | 90 | 1014.5 |
| 20260905015022 | 60 | 256 | 0.0 | 1.0 | 0.01 | 1.89 | 1.01 | 89 | 1014.5 |
| 20260905014924 | 60 | 256 | 0.0 | 1.0 | 0.01 | 1.89 | 1.01 | 89 | 1014.5 |
| 20260905014530 | 61 | 256 | 0.0 | 1.0 | 0.01 | 1.89 | 1.01 | 89 | 1014.4 |
| 20260905014432 | 61 | 255 | 0.0 | 1.0 | 0.01 | 1.89 | 1.01 | 89 | 1014.6 |
| 20260905014014 | 61 | 258 | 0.0 | 1.0 | 0.01 | 1.89 | 1.01 | 89 | 1014.5 |
| 20260905013915 | 61 | 258 | 0.0 | 1.0 | 0.01 | 1.89 | 1.01 | 90 | 1014.4 |
| 20260905013523 | 61 | 259 | 0.0 | 1.0 | 0.01 | 1.89 | 1.01 | 90 | 1014.4 |
| 20260905013422 | 61 | 259 | 0.0 | 0.0 | 0.01 | 1.89 | 1.01 | 90 | 1014.4 |
| 20260905013028 | 61 | 258 | 0.0 | 1.0 | 0.01 | 1.89 | 1.01 | 89 | 1014.3 |
| 20260905012929 | 61 | 258 | 0.0 | 1.0 | 0.01 | 1.89 | 1.01 | 90 | 1014.3 |
| 20260905012515 | 61 | 259 | 0.0 | 1.0 | 0.01 | 1.89 | 1.01 | 89 | 1014.3 |
| 20260905012417 | 61 | 259 | 0.0 | 2.0 | 0.01 | 1.89 | 1.01 | 89 | 1014.3 |
| 20260905012021 | 61 | 282 | 0.0 | 2.0 | 0.01 | 1.89 | 1.01 | 88 | 1014.3 |
| 20260905011922 | 61 | 314 | 0.0 | 2.0 | 0.01 | 1.89 | 1.01 | 88 | 1014.3 |
| 20260905011527 | 61 | 291 | 0.0 | 1.0 | 0.01 | 1.89 | 1.01 | 88 | 1014.3 |
| 20260905011430 | 61 | 307 | 1.0 | 1.0 | 0.01 | 1.89 | 1.01 | 89 | 1014.2 |
| 20260905011014 | 61 | 283 | 1.0 | 1.0 | 0.01 | 1.89 | 1.01 | 88 | 1014.2 |
| 20260905010917 | 61 | 269 | 0.0 | 1.0 | 0.01 | 1.89 | 1.01 | 89 | 1014.2 |
| 20260905010523 | 61 | 226 | 0.0 | 1.0 | 0.02 | 1.89 | 1.01 | 90 | 1014.3 |
| 20260905010424 | 61 | 226 | 0.0 | 1.0 | 0.02 | 1.89 | 1.01 | 91 | 1014.2 |
| 20260905010018 | 61 | 226 | 0.0 | 1.0 | 0.02 | 1.90 | 1.01 | 91 | 1014.3 |
| 20260905005921 | 61 | 226 | 0.0 | 1.0 | 0.02 | 1.90 | 1.01 | 91 | 1014.3 |
| 20260905005529 | 60 | 226 | 0.0 | 1.0 | 0.02 | 1.90 | 1.01 | 91 | 1014.2 |
| 20260905005412 | 60 | 267 | 0.0 | 1.0 | 0.01 | 1.89 | 1.00 | 91 | 1014.2 |
| 20260905005018 | 60 | 268 | 0.0 | 1.0 | 0.01 | 1.89 | 1.00 | 91 | 1014.2 |
| 20260905004921 | 60 | 272 | 0.0 | 1.0 | 0.01 | 1.89 | 1.00 | 91 | 1014.2 |
| 20260905004521 | 60 | 255 | 0.0 | 1.0 | 0.01 | 1.89 | 1.00 | 91 | 1014.2 |
| 20260905004427 | 60 | 256 | 0.0 | 1.0 | 0.01 | 1.89 | 1.00 | 91 | 1014.3 |
| 20260905004026 | 60 | 137 | 0.0 | 1.0 | 0.01 | 1.89 | 1.00 | 91 | 1014.1 |
| 20260905003913 | 60 | 137 | 0.0 | 1.0 | 0.01 | 1.89 | 1.00 | 91 | 1014.2 |
| 20260905003515 | 60 | 60 | 0.0 | 1.0 | 0.01 | 1.89 | 1.00 | 92 | 1014.1 |
| 20260905003420 | 60 | 60 | 0.0 | 1.0 | 0.01 | 1.89 | 1.00 | 91 | 1014.1 |
| 20260905003021 | 60 | 62 | 0.0 | 2.0 | 0.01 | 1.89 | 1.00 | 92 | 1014.1 |
| 20260905002923 | 59 | 55 | 0.0 | 2.0 | 0.01 | 1.89 | 1.00 | 92 | 1014.2 |
| 20260905002528 | 59 | 94 | 1.0 | 2.0 | 0.01 | 1.89 | 1.00 | 92 | 1014.1 |
| 20260905002431 | 59 | 121 | 0.0 | 2.0 | 0.01 | 1.89 | 1.00 | 92 | 1014.1 |
| 20260905002014 | 59 | 142 | 1.0 | 2.0 | 0.01 | 1.89 | 1.00 | 91 | 1014.1 |
| 20260905001914 | 59 | 142 | 1.0 | 2.0 | 0.01 | 1.89 | 1.00 | 91 | 1014.1 |
| 20260905001521 | 60 | 46 | 0.0 | 1.0 | 0.01 | 1.89 | 1.00 | 91 | 1014.0 |
| 20260905001423 | 60 | 83 | 0.0 | 1.0 | 0.01 | 1.89 | 1.00 | 91 | 1014.0 |
| 20260905001031 | 60 | 11 | 0.0 | 1.0 | 0.01 | 1.89 | 1.00 | 90 | 1014.1 |
| 20260905000913 | 60 | 11 | 0.0 | 1.0 | 0.01 | 1.89 | 1.00 | 90 | 1014.0 |
| 20260905000522 | 60 | 127 | 0.0 | 1.0 | 0.00 | 1.88 | 0.99 | 91 | 1014.0 |
| 20260905000425 | 60 | 127 | 0.0 | 1.0 | 0.00 | 1.88 | 0.99 | 91 | 1014.0 |
| 20260905000019 | 60 | 144 | 0.0 | 1.0 | 0.00 | 1.90 | 0.99 | 90 | 1014.0 |
| 20260904235920 | 60 | 144 | 0.0 | 1.0 | 0.00 | 1.90 | 0.99 | 90 | 1014.0 |
| 20260904235525 | 60 | 145 | 0.0 | 1.0 | 0.00 | 1.90 | 0.99 | 89 | 1013.9 |
| 20260904235427 | 60 | 145 | 0.0 | 1.0 | 0.00 | 1.90 | 0.99 | 89 | 1013.9 |
| 20260904235033 | 60 | 145 | 0.0 | 2.0 | 0.00 | 1.90 | 0.99 | 89 | 1013.9 |
| 20260904234913 | 60 | 143 | 0.0 | 3.0 | 0.00 | 1.90 | 0.99 | 89 | 1013.9 |
| 20260904234521 | 61 | 28 | 1.0 | 3.0 | 0.00 | 1.90 | 0.99 | 88 | 1013.9 |
| 20260904234423 | 61 | 253 | 0.0 | 3.0 | 0.00 | 1.90 | 0.99 | 88 | 1013.8 |
| 20260904234029 | 61 | 276 | 1.0 | 3.0 | 0.00 | 1.90 | 0.99 | 88 | 1013.8 |
| 20260904233912 | 61 | 282 | 1.0 | 3.0 | 0.00 | 1.90 | 0.99 | 88 | 1013.8 |
| 20260904233520 | 61 | 250 | 1.0 | 4.0 | 0.00 | 1.90 | 0.99 | 87 | 1013.7 |
| 20260904233443 | 61 | 132 | 1.0 | 4.0 | 0.00 | 1.90 | 0.99 | 87 | 1013.7 |
| 20260904233025 | 62 | 182 | 0.0 | 4.0 | 0.00 | 1.90 | 0.99 | 88 | 1013.7 |
| 20260904232926 | 62 | 133 | 1.0 | 4.0 | 0.00 | 1.90 | 0.99 | 87 | 1013.7 |
| 20260904232526 | 62 | 267 | 1.0 | 4.0 | 0.00 | 1.90 | 0.99 | 89 | 1013.7 |
| 20260904232413 | 62 | 307 | 1.0 | 3.0 | 0.00 | 1.90 | 0.99 | 88 | 1013.7 |
| 20260904232016 | 61 | 70 | 0.0 | 1.0 | 0.00 | 1.90 | 0.99 | 88 | 1013.7 |
| 20260904231920 | 61 | 70 | 0.0 | 1.0 | 0.00 | 1.90 | 0.99 | 88 | 1013.7 |
| 20260904231521 | 61 | 305 | 0.0 | 1.0 | 0.00 | 1.90 | 0.99 | 88 | 1013.7 |
| 20260904231424 | 61 | 43 | 0.0 | 1.0 | 0.00 | 1.90 | 0.99 | 88 | 1013.6 |
| 20260904231026 | 62 | 263 | 0.0 | 5.0 | 0.00 | 1.90 | 0.99 | 88 | 1013.5 |
| 20260904230927 | 62 | 263 | 0.0 | 5.0 | 0.00 | 1.90 | 0.99 | 88 | 1013.6 |
| 20260904230534 | 62 | 297 | 1.0 | 5.0 | 0.00 | 1.90 | 0.99 | 87 | 1013.4 |
| 20260904230415 | 62 | 82 | 0.0 | 4.0 | 0.00 | 1.90 | 0.99 | 87 | 1013.4 |
| 20260904230030 | 62 | 277 | 1.0 | 4.0 | 0.00 | 1.90 | 0.99 | 86 | 1013.3 |
| 20260904225913 | 62 | 309 | 1.0 | 4.0 | 0.00 | 1.90 | 0.99 | 86 | 1013.4 |
| 20260904225518 | 62 | 283 | 1.0 | 4.0 | 0.00 | 1.90 | 0.99 | 86 | 1013.3 |
| 20260904225421 | 63 | 285 | 1.0 | 3.0 | 0.00 | 1.90 | 0.99 | 88 | 1013.3 |
| 20260904225027 | 62 | 274 | 0.0 | 3.0 | 0.00 | 1.90 | 0.99 | 88 | 1013.2 |
| 20260904224929 | 62 | 4 | 1.0 | 3.0 | 0.00 | 1.90 | 0.99 | 87 | 1013.2 |
| 20260904224516 | 62 | 299 | 1.0 | 2.0 | 0.00 | 1.90 | 0.99 | 86 | 1013.2 |
| 20260904224419 | 62 | 287 | 0.0 | 2.0 | 0.00 | 1.90 | 0.99 | 88 | 1013.1 |
| 20260904224025 | 62 | 326 | 0.0 | 2.0 | 0.00 | 1.90 | 0.99 | 87 | 1013.2 |
| 20260904223925 | 62 | 152 | 0.0 | 2.0 | 0.00 | 1.90 | 0.99 | 87 | 1013.1 |
| 20260904223530 | 62 | 290 | 0.0 | 3.0 | 0.00 | 1.90 | 0.99 | 86 | 1013.1 |
| 20260904223428 | 62 | 289 | 1.0 | 3.0 | 0.00 | 1.90 | 0.99 | 86 | 1013.1 |
| 20260904223014 | 63 | 55 | 1.0 | 3.0 | 0.00 | 1.90 | 0.99 | 84 | 1013.0 |
| 20260904222916 | 63 | 62 | 1.0 | 2.0 | 0.00 | 1.90 | 0.99 | 84 | 1013.0 |
| 20260904222522 | 63 | 129 | 1.0 | 3.0 | 0.00 | 1.90 | 0.99 | 84 | 1013.0 |
| 20260904222425 | 64 | 74 | 1.0 | 3.0 | 0.00 | 1.90 | 0.99 | 84 | 1013.0 |
| 20260904222031 | 64 | 254 | 1.0 | 4.0 | 0.00 | 1.90 | 0.99 | 83 | 1013.0 |
| 20260904221912 | 64 | 283 | 1.0 | 4.0 | 0.00 | 1.90 | 0.99 | 82 | 1012.9 |
| 20260904221517 | 65 | 253 | 1.0 | 4.0 | 0.00 | 1.90 | 0.99 | 82 | 1013.0 |
| 20260904221419 | 65 | 315 | 1.0 | 4.0 | 0.00 | 1.90 | 0.99 | 81 | 1013.1 |
| 20260904221025 | 65 | 277 | 1.0 | 2.0 | 0.00 | 1.90 | 0.99 | 81 | 1013.0 |
| 20260904220928 | 65 | 277 | 1.0 | 2.0 | 0.00 | 1.90 | 0.99 | 81 | 1013.0 |
| 20260904220515 | 65 | 311 | 1.0 | 4.0 | 0.00 | 1.90 | 0.99 | 84 | 1012.9 |
| 20260904220417 | 65 | 314 | 1.0 | 4.0 | 0.00 | 1.90 | 0.99 | 84 | 1012.9 |
| 20260904220026 | 64 | 271 | 1.0 | 5.0 | 0.00 | 1.90 | 0.99 | 83 | 1012.9 |
| 20260904215932 | 64 | 3 | 2.0 | 5.0 | 0.00 | 1.90 | 0.99 | 82 | 1012.9 |
| 20260904215533 | 63 | 268 | 1.0 | 5.0 | 0.00 | 1.90 | 0.99 | 83 | 1012.9 |
| 20260904215419 | 63 | 249 | 2.0 | 5.0 | 0.00 | 1.90 | 0.99 | 83 | 1012.8 |
| 20260904215021 | 63 | 295 | 0.0 | 1.0 | 0.00 | 1.90 | 0.99 | 87 | 1012.8 |
| 20260904214926 | 63 | 300 | 1.0 | 1.0 | 0.00 | 1.90 | 0.99 | 89 | 1012.9 |
| 20260904214527 | 62 | 240 | 0.0 | 1.0 | 0.00 | 1.90 | 0.99 | 89 | 1012.8 |
| 20260904214413 | 62 | 240 | 0.0 | 1.0 | 0.00 | 1.90 | 0.99 | 89 | 1012.8 |
| 20260904214015 | 61 | 358 | 0.0 | 2.0 | 0.00 | 1.90 | 0.99 | 89 | 1012.8 |
| 20260904213917 | 61 | 358 | 0.0 | 2.0 | 0.00 | 1.90 | 0.99 | 89 | 1012.8 |
| 20260904213524 | 61 | 126 | 1.0 | 3.0 | 0.00 | 1.90 | 0.99 | 88 | 1012.8 |
| 20260904213424 | 61 | 288 | 0.0 | 3.0 | 0.00 | 1.90 | 0.99 | 88 | 1012.8 |
| 20260904213029 | 61 | 126 | 0.0 | 3.0 | 0.00 | 1.90 | 0.99 | 89 | 1012.8 |
| 20260904212931 | 61 | 277 | 0.0 | 4.0 | 0.00 | 1.90 | 0.99 | 88 | 1012.8 |
| 20260904212515 | 61 | 322 | 1.0 | 4.0 | 0.00 | 1.90 | 0.99 | 87 | 1012.7 |
| 20260904212417 | 61 | 101 | 1.0 | 4.0 | 0.00 | 1.90 | 0.99 | 86 | 1012.7 |